Other Public Products
Issued by NWS Charleston, SC

Home | Current Version | Previous Version | Text Only | Print | Product List | Glossary On
Versions: 1 2 3 4 5 6 7 8 9 10 11 12 13 14 15 16 17 18 19 20 21 22 23 24 25 26 27 28 29 30 31 32 33 34 35 36 37 38 39 40 41 42 43 44 45 46 47 48 49 50
000
FPUS82 KCHS 211427
OPUCHS

TEST...KCHS/KSAV Gateway Observations...TEST
National Weather Service Charleston SC
1000 AM EDT MON AUG 21 2017

NOTE: "fair" indicates few or no clouds below 12,000 feet with no
significant weather and/or obstructions to visibility.

SCZ050-WAZ558-NCZ071-TXZ119-213-PAZ071-DCZ001-FLZ074-172-MI076-
NYZ176-178-MAZ016-IL014-TNZ027-NJZ106-GAZ044-MD014-211500-

...Gateway Observations for Charleston International...

CITY           SKY/WX    TMP DP  RH WIND       PRES   REMARKS
Chas Airport   PTSUNNY   86  78  77 NE8       30.18R HX  98
Seattle        PTCLDY    59  55  87 N6        30.13R
Charlotte      MOSUNNY   85  74  69 N6        30.23S HX  92
Dallas DFW     SUNNY     85  71  63 S8        30.06R HX  90
Dallas Love    SUNNY     83  72  69 S8        30.07R
Philladelphia  PTSUNNY   79  65  62 S3        30.21S
Wash National  MOSUNNY   81  76  84 S9        30.20S
Baltimore      PTSUNNY   81  72  74 S7        30.19S
Miami          MOSUNNY   90  74  59 E15       30.09R HX  99
Detroit        PTSUNNY   80  70  71 CALM      30.11F
Newark         PTSUNNY   80  63  55 W7        30.19F
Laguardia      PTSUNNY   83  62  49 W8        30.18F
J F K          PTSUNNY   82  65  56 VRB6      30.20F
Boston Logan   MOSUNNY   78  61  55 W7        30.15F
Ft. Lauderdale PTSUNNY   87  76  69 E18       30.09R HX  97
Chicago O`Hare CLOUDY    75  69  81 SW7       30.07R
Chicago Midway CLOUDY    76  70  82 SW10      30.06R
Houston Bush   MOSUNNY   84  77  79 NE6       30.07R HX  94
Houston Hobby  MOSUNNY   88  76  67 SE5       30.06R HX  99
Nashville      MOSUNNY   82  71  69 S3        30.19R
Atlanta        MOSUNNY   84  72  67 NE6       30.20S

$$

GAZ044-118-TXZ119-213-NCZ071-DCZ001-MDZ014-506-PAZ021-071-NJZ106-
NYZ176-178-MAZ106-OHZ011-021-055-MIZ076-KYZ091-ILZ014-INZ047-
MNZ060-ONZ431-211500-

...Gateway Observations for Savannah International...

CITY           SKY/WX    TMP DP  RH WIND       PRES   REMARKS
Savannah Arpt  PTSUNNY   86  77  74 NE6       30.17S HX  97
Atlanta        MOSUNNY   84  72  67 NE6       30.20S
Charlotte      MOSUNNY   85  74  69 N6        30.23S HX  92
Dallas DFW     SUNNY     85  71  63 S8        30.06R HX  90
Houston Bush   MOSUNNY   84  77  79 NE6       30.07R HX  94
Wash National  MOSUNNY   81  76  84 S9        30.20S
Wash Dulles    PTSUNNY   80  75  84 VRB7      30.20S
Baltimore      PTSUNNY   81  72  74 S7        30.19S
Philadelphia   PTSUNNY   79  65  62 S3        30.21S
Newark         PTSUNNY   80  63  55 W7        30.19F
Laguardia      PTSUNNY   83  62  49 W8        30.18F
J F K          PTSUNNY   82  65  56 VRB6      30.20F
Boston         MOSUNNY   78  61  55 W7        30.15F
Pittsburg      PTSUNNY   75  69  81 VRB3      30.19S
Akron          PTSUNNY   80  66  62 S5        30.16F
Cleveland      PTSUNNY   82  66  58 W7        30.15F
Cincinnati     MOSUNNY   81  70  69 SW7       30.17R
Columbus       SUNNY     79  71  78 SW6       30.16S
Detroit        PTSUNNY   80  70  71 CALM      30.11F
Chicago O`Hare CLOUDY    75  69  81 SW7       30.07R
Minneapolis    CLOUDY    68  60  75 NE5       30.03F
Indianapolis   PTSUNNY   80  70  71 SW9       30.12S
Toronto Canada MOSUNNY   77  64  65 S5        30.08F

$$




USA.gov is the U.S. government's official web portal to all federal, state and local government web resources and services.